Погода в Конотопе

Погода в Конотопе : погода сейчас, прогноз погоды и архив. Всё, что Вы хотите узнать о погоде в Конотопе!

Хотите узнать прогноз погоды в Конотопе? Тогда Вам сюда: Погода в Конотопе

Поиск расширенной информации на нашем сайте:

Другие новости

Новости СМИ2

Главная страница сайта

Новости сайта

03.07.2017

Напоминаем, что на нашем специализированном сайте Метеоцентр.Азия вы можете получить высокодетализированные автоматические прогнозы погоды по пунктам России, СНГ и мира в авиационном формате (включающие направление и скорость ветра, видимость, явления погоды, количество и форму облачности, нижнюю и верхнюю границу облачности).


Погода в Конотопе - сегодня

Время (UTC), дата Ветер
(°,м/с) 
Видим.   Явления Облачность Т
(°С)
Тd
(°С)
f(%) Тe
(°С)
Pmin
(гПа)
dP
(гПа)
Po
(мм)
O2
(г/м3)
Тmin Tmax R s Состояние
почвы
21 17.08.17 060 (СВ) 10 км    1/0 средняя 
[Ac trans]
+20.2 +13.4 65 +26  1020.9  0.1  753  280           
00 18.08.17 050 (СВ) 10 км    ясно 
+17.9 +12.7 72 +24  1021  -0.1  753  282           
03 18.08.17 050 (СВ) 10 км    4/0 средняя 
[Ac trans]
+16.4 +12.8 79 +23  1021.2  0.1  753  284           
06 18.08.17 040 (СВ) 20000 м    3/0 средняя 
[Ac trans]
+21.5 +13.3 60 +27  1021.2  0.3  753  279  +16.3         
09 18.08.17 060 (СВ) 20000 м    1/1 1000 м 
[Cu med, cong]
+28.1 +14.7 44 +36  1020.6  -0.2  753  272           
12 18.08.17 070 (В) 20000 м    3/1 1000 м средняя 
[Cu hum|Ac trans]
+31.6 +14 34 +39  1019.3  -1.1  752  269           
15 18.08.17 120 (ЮВ) 20000 м    3/1 600 м кучево-дожд., верхняя 
[Cb cap|Ci ing]
+31.5 +10.4 27 +33  1018.7  -0.6  751  270           
18 18.08.17 тихо ()   10 км    1/0 средняя 
[Ac trans]
+25 +16.6 60 +36  1019.6  0.6  752  274    +32.1       
21 18.08.17 тихо ()   10 км    ясно 
+20 +14.7 72 +28  1019.9  752  279           
00 19.08.17 тихо ()   10 км    ясно 
+18.6 +13.7 73 +25  1019.9  -0.1  752  281           
03 19.08.17 070 (В) 10 км    3/0 средняя, верхняя 
[Ac trans|Ci fib]
+16.4 +11.8 74 +22  1020.8  0.7  752  284           
06 19.08.17 тихо ()   20000 м    8/3 1500 м средняя, верхняя 
[Sc|Ac cast|Ci fib]
+22.2 +14 60 +29  1021.5  1.1  753  278  +16.1         
09 19.08.17 180 (Ю) 20000 м    ясно 
+31.7 +10 26 +33  1020.7  -0.3  753  270           
12 19.08.17 130 (ЮВ) 20000 м    3/3 1000 м 
[Cu med, cong]
+33.1 +7.6 21 +33  1019.9  -0.7  752  269           
15 19.08.17 120 (ЮВ) 20000 м    3/1 1000 м средняя 
[Cu med, cong|Ac trans]
+31.6 +9.5 26 +32  1019.7  -0.3  752  270           
18 19.08.17 110 (В) 10 км    1/0 средняя 
[Ac trans]
+25.7 +11.9 42 +29  1020.4  0.4  752  275    +33.5       
21 19.08.17 130 (ЮВ) 10 км    3/0 верхняя 
[Ci fib]
+22.5 +10.7 47 +25  1021.2  0.6  753  278           
00 20.08.17 120 (ЮВ) 10 км    ясно 
+20.5 +10.6 53 +22  1021.4  753  280           
03 20.08.17 110 (В) 10 км    3/0 верхняя 
[Ci fib]
+17.3 +10.8 66 +21  1021.6  0.1  753  283           
06 20.08.17 100 (В) 20000 м    ясно 
+22.9 +9.9 44 +24  1021.7  0.4  753  278  +17.1         
09 20.08.17 140 (ЮВ) 20000 м    ясно 
+29.4 +9.1 28 +29  1020.7  -0.6  753  272           
12 20.08.17 090 (В) 20000 м    1/1 1000 м 
[Cu hum]
+30.3 +10.3 29 +32  1019.3  -1.4  752  271           
15 20.08.17 100 (В) 20000 м    ясно 
+29.4 +8.8 28 +29  1018  -1.3  751  272           
18 20.08.17 060 (СВ) 20000 м    ясно 
+23.9 +12.6 49 +29  1018.3  751  276    +30.6       
21 20.08.17 050 (СВ) 20000 м    ясно 
+19.7 +10.7 56 +23  1017.7  -0.8  750  280           
Время (UTC), дата Ветер
(°,м/с) 
Видим.   Явления Облачность Т
(°С)
Тd
(°С)
f(%) Тe
(°С)
Pmin
(гПа)
dP
(гПа)
Po
(мм)
O2
(г/м3)
Тmin Tmax R s Состояние
почвы

Для получения пояснительной информации подведите курсор к названию столбца.

ПОГОДА в Конотопе - архив

Всё, что Вы хотите узнать о погоде в Конотопе - удобно и подробно!

Выберите нужную дату (начиная с 1 января 2015* года) и нажмите кнопку "Найти".
Будут отображены архивные сводки погоды по пункту Конотоп, начиная с указанной даты.


Отображать данные в формате CSV (для использования в таблицах Excel)


Внимание! Наш архив погоды предназначен исключительно для личного некоммерческого использования в познавательных целях. Если Вам необходимы официальные справки о состоянии погоды (для производственных, юридических, коммерческих и т.п. целей), обращайтесь в органы Росгидромета.

*Примечание: данная дата относится к архиву по метеостанциям СССР (Россия, СНГ, Балтия).
Архив по метеостанциям Зарубежной Европы и Азии (кроме Китая) хранится 10 дней, по другим регионам земного шара (Китай, Африка, Америка, Австралия, Океания) - 1 день.

Конотоп - район местоположения метеостанции


Название, широта, долгота, высота метеостанции:
Конотоп 51.2°ш. 33.2°д. 149 м над ур. моря [Украина]

Дополнительная информация

В oтличие oт бoльшинства пoгoдных сайтoв мы публикуем пoдрoбную метеoинфoрмацию в детальнoм прoфессиoнальнoм фoрмате.

Характеристики температуры и влажнoсти вoздуха измеряются на высoте 2 м в тени вдали oт зданий и деревьев.
Скoрoсть ветра измеряется на высoте 10 м (на урoвне рoста челoвека скoрoсть ветра ниже в 1.5-2 раза). Если метеoстанция нахoдится в гoрoде или в лесу, тo скoрoсть ветра занижена на 2-4 м/с пo сравнению с oткрытым местoм. Скoрoсть ветра над акватoриями крупных рек и oзёр, а также на вершинах хoлмoв на 2-5 м/с выше, чем в oбычных услoвиях.
Атмoсфернoе давление в разных тoчках местнoсти мoжет значительнo oтличаться oт давления на метеoстанции, в зависимoсти oт услoвий рельефа (при пoдъёме на 10 м давление пoнижается примернo на 1 мм рт.ст.).